Location: *
(43.4667°N, 11.6833°E)
Time: 09:04:11
(UTC+00:00)

Cosmos 1356 Rocket - Pass Details

Date: 19 July 2019
Orbit: 543 x 598 km, 81.2° (Epoch: 23 August)

Event Time Altitude Azimuth Distance (km) Brightness Sun altitude
Rises 20:39:39 0° 349° (N) 2,843 8.1 -16.0°
Reaches altitude 10° 20:41:52 10° 350° (N) 1,941 7.1 -16.3°
Maximum altitude 20:46:11 89° 84° (E) 605 3.4 -16.7°
Enters shadow 20:48:14 30° 170° (S) 1,071 4.3 -17.0°
